Time,TemperatureF,DewpointF,PressureIn,WindDirection,WindDirectionDegrees,WindSpeedMPH,WindSpeedGustMPH,Humidity,HourlyPrecipIn,Conditions,Clouds,dailyrainin,SolarRadiationWatts/m^2,SoftwareType,DateUTC
2013-02-06 00:01:00,31.0,26.0,-100.00,WSW,242,7.0,15.0,83,0.00,,,0.00,0.000000,,2013-02-06 08:01:00,
2013-02-06 00:11:00,31.0,26.0,-100.00,WSW,242,7.0,15.0,83,0.00,,,0.00,0.000000,,2013-02-06 08:11:00,
2013-02-06 00:21:00,31.0,26.0,-100.00,WSW,242,7.0,15.0,83,0.00,,,0.00,0.000000,,2013-02-06 08:21:00,
2013-02-06 00:31:00,31.0,26.0,-100.00,WSW,242,7.0,15.0,83,0.00,,,0.00,0.000000,,2013-02-06 08:31:00,
2013-02-06 00:53:00,31.0,28.0,-100.00,SW,223,5.0,10.0,89,0.00,,,0.00,0.000000,,2013-02-06 08:53:00,
2013-02-06 01:01:00,31.0,28.0,-100.00,SW,223,5.0,10.0,89,0.00,,,0.00,0.000000,,2013-02-06 09:01:00,
2013-02-06 01:11:00,31.0,28.0,-100.00,SW,223,5.0,10.0,89,0.00,,,0.00,0.000000,,2013-02-06 09:11:00,
2013-02-06 01:21:00,31.0,28.0,-100.00,SW,223,5.0,10.0,89,0.00,,,0.00,0.000000,,2013-02-06 09:21:00,
2013-02-06 01:31:00,31.0,28.0,-100.00,SW,223,5.0,10.0,89,0.00,,,0.00,0.000000,,2013-02-06 09:31:00,
2013-02-06 01:52:00,31.0,28.0,-100.00,SW,236,7.0,10.0,87,0.00,,,0.00,0.000000,,2013-02-06 09:52:00,
2013-02-06 02:01:00,31.0,28.0,-100.00,SW,236,7.0,10.0,87,0.00,,,0.00,0.000000,,2013-02-06 10:01:00,
2013-02-06 02:11:00,31.0,28.0,-100.00,SW,236,7.0,10.0,87,0.00,,,0.00,0.000000,,2013-02-06 10:11:00,
2013-02-06 02:21:00,31.0,28.0,-100.00,SW,236,7.0,10.0,87,0.00,,,0.00,0.000000,,2013-02-06 10:21:00,
2013-02-06 02:31:00,31.0,28.0,-100.00,SW,236,7.0,10.0,87,0.00,,,0.00,0.000000,,2013-02-06 10:31:00,
2013-02-06 02:52:00,31.0,27.0,-100.00,WSW,242,5.0,20.0,85,0.00,,,0.00,0.000000,,2013-02-06 10:52:00,
2013-02-06 03:01:00,31.0,27.0,-100.00,WSW,242,5.0,20.0,85,0.00,,,0.00,0.000000,,2013-02-06 11:01:00,
2013-02-06 03:11:00,31.0,27.0,-100.00,WSW,242,5.0,20.0,85,0.00,,,0.00,0.000000,,2013-02-06 11:11:00,
2013-02-06 03:22:00,31.0,27.0,-100.00,WSW,242,5.0,20.0,85,0.00,,,0.00,0.000000,,2013-02-06 11:22:00,
2013-02-06 03:31:00,31.0,27.0,-100.00,WSW,242,5.0,20.0,85,0.00,,,0.00,0.000000,,2013-02-06 11:31:00,
2013-02-06 03:53:00,31.0,27.0,-100.00,SSW,192,2.0,9.0,86,0.00,,,0.00,0.000000,,2013-02-06 11:53:00,
2013-02-06 04:01:00,31.0,27.0,-100.00,SSW,192,2.0,9.0,86,0.00,,,0.00,0.000000,,2013-02-06 12:01:00,
2013-02-06 04:12:00,31.0,27.0,-100.00,SSW,192,2.0,9.0,86,0.00,,,0.00,0.000000,,2013-02-06 12:12:00,
2013-02-06 04:22:00,31.0,27.0,-100.00,SSW,192,2.0,9.0,86,0.00,,,0.00,0.000000,,2013-02-06 12:22:00,
2013-02-06 04:32:00,31.0,27.0,-100.00,SSW,192,2.0,9.0,86,0.00,,,0.00,0.000000,,2013-02-06 12:32:00,
2013-02-06 04:52:00,31.0,28.0,-100.00,SSW,200,3.0,6.0,87,0.00,,,-99.99,0.000000,,2013-02-06 12:52:00,
2013-02-06 05:01:00,31.0,28.0,-100.00,SSW,200,3.0,6.0,87,0.00,,,-99.99,0.000000,,2013-02-06 13:01:00,
2013-02-06 05:11:00,31.0,28.0,-100.00,SSW,200,3.0,6.0,87,0.00,,,-99.99,0.000000,,2013-02-06 13:11:00,
2013-02-06 05:21:00,31.0,28.0,-100.00,SSW,200,3.0,6.0,87,0.00,,,-99.99,0.000000,,2013-02-06 13:21:00,
2013-02-06 05:31:00,31.0,28.0,-100.00,SSW,200,3.0,6.0,87,0.00,,,-99.99,0.000000,,2013-02-06 13:31:00,
2013-02-06 05:52:00,31.0,26.0,-100.00,WSW,250,5.0,11.0,82,0.00,,,0.00,0.000000,,2013-02-06 13:52:00,
2013-02-06 06:01:00,31.0,26.0,-100.00,WSW,250,5.0,11.0,82,0.00,,,0.00,0.000000,,2013-02-06 14:01:00,
2013-02-06 06:11:00,31.0,26.0,-100.00,WSW,250,5.0,11.0,82,0.00,,,0.00,0.000000,,2013-02-06 14:11:00,
2013-02-06 06:21:00,31.0,26.0,-100.00,WSW,250,5.0,11.0,82,0.00,,,0.00,0.000000,,2013-02-06 14:21:00,
2013-02-06 06:31:00,31.0,26.0,-100.00,WSW,250,5.0,11.0,82,0.00,,,0.00,0.000000,,2013-02-06 14:31:00,
2013-02-06 06:52:00,31.0,26.0,-100.00,SW,230,5.0,11.0,81,0.00,,,0.00,0.000000,,2013-02-06 14:52:00,
2013-02-06 07:01:00,31.0,26.0,-100.00,SW,230,5.0,11.0,81,0.00,,,0.00,0.000000,,2013-02-06 15:01:00,
2013-02-06 07:11:00,31.0,26.0,-100.00,SW,230,5.0,11.0,81,0.00,,,0.00,0.000000,,2013-02-06 15:11:00,
2013-02-06 07:21:00,31.0,26.0,-100.00,SW,230,5.0,11.0,81,0.00,,,0.00,0.000000,,2013-02-06 15:21:00,
2013-02-06 07:31:00,31.0,26.0,-100.00,SW,230,5.0,11.0,81,0.00,,,0.00,0.000000,,2013-02-06 15:31:00,
2013-02-06 07:52:00,31.0,26.0,-100.00,WSW,240,5.0,11.0,81,0.00,,,0.00,3.000000,,2013-02-06 15:52:00,
2013-02-06 08:01:00,31.0,26.0,-100.00,WSW,240,5.0,11.0,81,0.00,,,0.00,3.000000,,2013-02-06 16:01:00,
2013-02-06 08:11:00,31.0,26.0,-100.00,WSW,240,5.0,11.0,81,0.00,,,0.00,3.000000,,2013-02-06 16:11:00,
2013-02-06 08:21:00,31.0,26.0,-100.00,WSW,240,5.0,11.0,81,0.00,,,0.00,3.000000,,2013-02-06 16:21:00,
2013-02-06 08:32:00,31.0,26.0,-100.00,WSW,240,5.0,11.0,81,0.00,,,0.00,3.000000,,2013-02-06 16:32:00,
2013-02-06 08:52:00,32.0,26.0,-100.00,SW,230,6.0,11.0,79,0.00,,,0.00,42.000000,,2013-02-06 16:52:00,
2013-02-06 09:01:00,32.0,26.0,-100.00,SW,230,6.0,11.0,79,0.00,,,0.00,42.000000,,2013-02-06 17:01:00,
2013-02-06 09:11:00,32.0,26.0,-100.00,SW,230,6.0,11.0,79,0.00,,,0.00,42.000000,,2013-02-06 17:11:00,
2013-02-06 09:21:00,32.0,26.0,-100.00,SW,230,6.0,11.0,79,0.00,,,0.00,42.000000,,2013-02-06 17:21:00,
2013-02-06 09:32:00,32.0,26.0,-100.00,SW,230,6.0,11.0,79,0.00,,,0.00,42.000000,,2013-02-06 17:32:00,
2013-02-06 09:52:00,34.0,26.0,-100.00,SSW,209,6.0,12.0,72,0.00,,,0.00,130.000000,,2013-02-06 17:52:00,
2013-02-06 10:01:00,34.0,26.0,-100.00,SSW,209,6.0,12.0,72,0.00,,,0.00,130.000000,,2013-02-06 18:01:00,
2013-02-06 10:11:00,34.0,26.0,-100.00,SSW,209,6.0,12.0,72,0.00,,,0.00,130.000000,,2013-02-06 18:11:00,
2013-02-06 10:22:00,34.0,26.0,-100.00,SSW,209,6.0,12.0,72,0.00,,,0.00,130.000000,,2013-02-06 18:22:00,
2013-02-06 10:32:00,34.0,26.0,-100.00,SSW,209,6.0,12.0,72,0.00,,,0.00,130.000000,,2013-02-06 18:32:00,
2013-02-06 10:52:00,37.0,28.0,-100.00,South,185,6.0,13.0,69,0.00,,,0.00,290.000000,,2013-02-06 18:52:00,
2013-02-06 11:01:00,37.0,28.0,-100.00,South,185,6.0,13.0,69,0.00,,,0.00,290.000000,,2013-02-06 19:01:00,
2013-02-06 11:11:00,37.0,28.0,-100.00,South,185,6.0,13.0,69,0.00,,,0.00,290.000000,,2013-02-06 19:11:00,
2013-02-06 11:21:00,37.0,28.0,-100.00,South,185,6.0,13.0,69,0.00,,,0.00,290.000000,,2013-02-06 19:21:00,
2013-02-06 11:31:00,37.0,28.0,-100.00,South,185,6.0,13.0,69,0.00,,,0.00,290.000000,,2013-02-06 19:31:00,
2013-02-06 11:52:00,38.0,26.0,-100.00,SSW,196,7.0,12.0,62,0.00,,,0.00,421.000000,,2013-02-06 19:52:00,
2013-02-06 12:01:00,38.0,26.0,-100.00,SSW,196,7.0,12.0,62,0.00,,,0.00,421.000000,,2013-02-06 20:01:00,
2013-02-06 12:11:00,38.0,26.0,-100.00,SSW,196,7.0,12.0,62,0.00,,,0.00,421.000000,,2013-02-06 20:11:00,
2013-02-06 12:21:00,38.0,26.0,-100.00,SSW,196,7.0,12.0,62,0.00,,,0.00,421.000000,,2013-02-06 20:21:00,
2013-02-06 12:31:00,38.0,26.0,-100.00,SSW,196,7.0,12.0,62,0.00,,,0.00,421.000000,,2013-02-06 20:31:00,
2013-02-06 12:52:00,39.0,24.0,-100.00,SSW,195,7.0,15.0,55,0.00,,,0.00,395.000000,,2013-02-06 20:52:00,
2013-02-06 13:01:00,39.0,24.0,-100.00,SSW,195,7.0,15.0,55,0.00,,,0.00,395.000000,,2013-02-06 21:01:00,
2013-02-06 13:11:00,39.0,24.0,-100.00,SSW,195,7.0,15.0,55,0.00,,,0.00,395.000000,,2013-02-06 21:11:00,
2013-02-06 13:21:00,39.0,24.0,-100.00,SSW,195,7.0,15.0,55,0.00,,,0.00,395.000000,,2013-02-06 21:21:00,
2013-02-06 13:31:00,39.0,24.0,-100.00,SSW,195,7.0,15.0,55,0.00,,,0.00,395.000000,,2013-02-06 21:31:00,
2013-02-06 13:52:00,38.0,24.0,-100.00,South,185,6.0,11.0,57,0.00,,,0.00,175.000000,,2013-02-06 21:52:00,
2013-02-06 14:01:00,38.0,24.0,-100.00,South,185,6.0,11.0,57,0.00,,,0.00,175.000000,,2013-02-06 22:01:00,
2013-02-06 14:11:00,38.0,24.0,-100.00,South,185,6.0,11.0,57,0.00,,,0.00,175.000000,,2013-02-06 22:11:00,
2013-02-06 14:21:00,38.0,24.0,-100.00,South,185,6.0,11.0,57,0.00,,,0.00,175.000000,,2013-02-06 22:21:00,
2013-02-06 14:31:00,38.0,24.0,-100.00,South,185,6.0,11.0,57,0.00,,,0.00,175.000000,,2013-02-06 22:31:00,
2013-02-06 14:52:00,39.0,24.0,-100.00,SSW,201,5.0,9.0,54,0.00,,,0.00,177.000000,,2013-02-06 22:52:00,
2013-02-06 15:01:00,39.0,24.0,-100.00,SSW,201,5.0,9.0,54,0.00,,,0.00,177.000000,,2013-02-06 23:01:00,
2013-02-06 15:11:00,39.0,24.0,-100.00,SSW,201,5.0,9.0,54,0.00,,,0.00,177.000000,,2013-02-06 23:11:00,
2013-02-06 15:21:00,39.0,24.0,-100.00,SSW,201,5.0,9.0,54,0.00,,,0.00,177.000000,,2013-02-06 23:21:00,
2013-02-06 15:31:00,39.0,24.0,-100.00,SSW,201,5.0,9.0,54,0.00,,,0.00,177.000000,,2013-02-06 23:31:00,
2013-02-06 15:52:00,38.0,23.0,-100.00,SE,133,3.0,10.0,54,0.00,,,0.00,124.000000,,2013-02-06 23:52:00,
2013-02-06 16:01:00,38.0,23.0,-100.00,SE,133,3.0,10.0,54,0.00,,,0.00,124.000000,,2013-02-07 00:01:00,
2013-02-06 16:11:00,38.0,23.0,-100.00,SE,133,3.0,10.0,54,0.00,,,0.00,124.000000,,2013-02-07 00:11:00,
2013-02-06 16:21:00,38.0,23.0,-100.00,SE,133,3.0,10.0,54,0.00,,,0.00,124.000000,,2013-02-07 00:21:00,
2013-02-06 16:31:00,38.0,23.0,-100.00,SE,133,3.0,10.0,54,0.00,,,0.00,124.000000,,2013-02-07 00:31:00,
2013-02-06 16:52:00,38.0,23.0,-100.00,SSE,149,3.0,6.0,54,0.00,,,0.00,88.000000,,2013-02-07 00:52:00,
2013-02-06 17:01:00,38.0,23.0,-100.00,SSE,149,3.0,6.0,54,0.00,,,0.00,88.000000,,2013-02-07 01:01:00,
2013-02-06 17:11:00,38.0,23.0,-100.00,SSE,149,3.0,6.0,54,0.00,,,0.00,88.000000,,2013-02-07 01:11:00,
2013-02-06 17:21:00,38.0,23.0,-100.00,SSE,149,3.0,6.0,54,0.00,,,0.00,88.000000,,2013-02-07 01:21:00,
2013-02-06 17:31:00,38.0,23.0,-100.00,SSE,149,3.0,6.0,54,0.00,,,0.00,88.000000,,2013-02-07 01:31:00,
2013-02-06 17:52:00,36.0,21.0,-100.00,WSW,247,1.0,5.0,54,0.00,,,0.00,24.000000,,2013-02-07 01:52:00,
2013-02-06 18:01:00,36.0,21.0,-100.00,WSW,247,1.0,5.0,54,0.00,,,0.00,24.000000,,2013-02-07 02:01:00,
2013-02-06 18:11:00,36.0,21.0,-100.00,WSW,247,1.0,5.0,54,0.00,,,0.00,24.000000,,2013-02-07 02:11:00,
2013-02-06 18:21:00,36.0,21.0,-100.00,WSW,247,1.0,5.0,54,0.00,,,0.00,24.000000,,2013-02-07 02:21:00,
2013-02-06 18:31:00,36.0,21.0,-100.00,WSW,247,1.0,5.0,54,0.00,,,0.00,24.000000,,2013-02-07 02:31:00,
2013-02-06 19:02:00,36.0,22.0,-100.00,East,98,2.0,5.0,57,0.00,,,0.00,0.000000,,2013-02-07 03:02:00,
2013-02-06 19:11:00,36.0,22.0,-100.00,East,98,2.0,5.0,57,0.00,,,0.00,0.000000,,2013-02-07 03:11:00,
2013-02-06 19:21:00,36.0,22.0,-100.00,East,98,2.0,5.0,57,0.00,,,0.00,0.000000,,2013-02-07 03:21:00,
2013-02-06 19:31:00,36.0,22.0,-100.00,East,98,2.0,5.0,57,0.00,,,0.00,0.000000,,2013-02-07 03:31:00,
2013-02-06 19:52:00,35.0,21.0,-100.00,NNE,24,2.0,6.0,56,0.00,,,0.00,0.000000,,2013-02-07 03:52:00,
2013-02-06 20:01:00,35.0,21.0,-100.00,NNE,24,2.0,6.0,56,0.00,,,0.00,0.000000,,2013-02-07 04:01:00,
2013-02-06 20:11:00,35.0,21.0,-100.00,NNE,24,2.0,6.0,56,0.00,,,0.00,0.000000,,2013-02-07 04:11:00,
2013-02-06 20:22:00,35.0,21.0,-100.00,NNE,24,2.0,6.0,56,0.00,,,0.00,0.000000,,2013-02-07 04:22:00,
2013-02-06 20:31:00,35.0,21.0,-100.00,NNE,24,2.0,6.0,56,0.00,,,0.00,0.000000,,2013-02-07 04:31:00,
2013-02-06 20:53:00,36.0,21.0,-100.00,NE,55,2.0,11.0,55,0.00,,,0.00,0.000000,,2013-02-07 04:53:00,
2013-02-06 21:01:00,36.0,21.0,-100.00,NE,55,2.0,11.0,55,0.00,,,0.00,0.000000,,2013-02-07 05:01:00,
2013-02-06 21:11:00,36.0,21.0,-100.00,NE,55,2.0,11.0,55,0.00,,,0.00,0.000000,,2013-02-07 05:11:00,
2013-02-06 21:21:00,36.0,21.0,-100.00,NE,55,2.0,11.0,55,0.00,,,0.00,0.000000,,2013-02-07 05:21:00,
2013-02-06 21:32:00,36.0,21.0,-100.00,NE,55,2.0,11.0,55,0.00,,,0.00,0.000000,,2013-02-07 05:32:00,
2013-02-06 21:52:00,35.0,22.0,-100.00,SE,125,2.0,4.0,58,0.00,,,0.00,0.000000,,2013-02-07 05:52:00,
2013-02-06 22:02:00,35.0,22.0,-100.00,SE,125,2.0,4.0,58,0.00,,,0.00,0.000000,,2013-02-07 06:02:00,
2013-02-06 22:11:00,35.0,22.0,-100.00,SE,125,2.0,4.0,58,0.00,,,0.00,0.000000,,2013-02-07 06:11:00,
2013-02-06 22:22:00,35.0,22.0,-100.00,SE,125,2.0,4.0,58,0.00,,,0.00,0.000000,,2013-02-07 06:22:00,
2013-02-06 22:31:00,35.0,22.0,-100.00,SE,125,2.0,4.0,58,0.00,,,0.00,0.000000,,2013-02-07 06:31:00,
2013-02-06 22:52:00,35.0,23.0,-100.00,WSW,245,4.0,6.0,60,0.00,,,0.00,0.000000,,2013-02-07 06:52:00,
2013-02-06 23:01:00,35.0,23.0,-100.00,WSW,245,4.0,6.0,60,0.00,,,0.00,0.000000,,2013-02-07 07:01:00,
2013-02-06 23:11:00,35.0,23.0,-100.00,WSW,245,4.0,6.0,60,0.00,,,0.00,0.000000,,2013-02-07 07:11:00,
2013-02-06 23:21:00,35.0,23.0,-100.00,WSW,245,4.0,6.0,60,0.00,,,0.00,0.000000,,2013-02-07 07:21:00,
2013-02-06 23:31:00,35.0,23.0,-100.00,WSW,245,4.0,6.0,60,0.00,,,0.00,0.000000,,2013-02-07 07:31:00,
2013-02-06 23:52:00,34.0,23.0,-100.00,SE,140,3.0,8.0,63,0.00,,,0.00,0.000000,,2013-02-07 07:52:00,